DELTA 1 R/B, 979

Orbit data source: Space-Track

DELTA 1 R/B, 979 is space debris in SSO originally from a launch on Fri, 22 Jan 1965 UTC launched from the Air Force Eastern Test Range (AFETR). Debris objects in space refer to the collection of defunct objects orbiting the Earth. Examples of debris include non-operational satellites, rocket bodies, and fragments generated from explosions, collisions, or faulty payload assembly.

Loading next visibility...
Identifier
979, 1965-004B
Orbit
SSO
Country
Flag of USUS
Related business
Manufacturer
ABL
Mission
Spacecraft
Bus & Motor
ALTAIR, Unknown motor
Mass
60 kg wet, 60 kg dry
Launch date (UTC)
1965-01-22 (61 years ago)
Launch vehicle
Unknown
Launch site
Air Force Eastern Test Range (AFETR)
Object type
Payload
Rocket body
Debris
Shape & HBR
Unknown
Radar Cross Section
Medium (>0.1 m² and <1 m²)

Expand to show TLE details & history
Last TLE update: 8 hours ago

TLE from 8 hours ago
0 DELTA 1 R/B
1 00979U 65004B   26127.21047483  .00000068  00000-0  10514-3 0  9995
2 00979  96.4219   3.6493 1139058 351.3263   6.9514 12.15524232710586
Epoch: 2026-05-07T05:03Z
TLE epoch observation values (Epoch: 2026-05-07T05:03:05.025Z)
Latitude
-0°
Longitude
62.81848°
Altitude
713.061 km
Speed
7.911 km/s
True Right ascension
00h 14m 35s
True Declination
0° 00' 00"
Sunlit
Object was in daylight at epoch
Visualization orbit readout
Latitude
Unknown
Longitude
Unknown
Altitude
Unknown
Speed
Unknown
Apparent Right ascension
Unknown
Apparent Declination
Unknown
Sunlit
N/A
Visualization observer readout
Local Sidereal Time
21:31:42
Azimuth
Unknown
Elevation
Unknown
Doppler factor
Unknown
Orbital elements
Apogee altitude
2,519.223 km
Perigee altitude
699.57 km
Semi-major axis
7,987.533 km
Eccentricity
0.11391
Inclination
96.4219°
RAAN
3.6493°
Arg. of periapsis
351.3263°
True anomaly
8.78878°
Mean anomaly
6.9514°
Eccentric anomaly
7.84185°
Mean motion
3.04035 °/min
Orbital period
118.41 mins
BSTAR
0.00010514
Loading maneuver chart data...
Computing Atmospheric mass density...
Loading historical data...
Loading historical data...
Loading historical data...
Loading historical data...
Loading historical data...
Loading historical data...
Loading historical data...
Other satellites on launch #4 in the year 1965 (1965-01-22 UTC)

Documentation

Showing up to 5 results
|